Tracking 31027 objects as of 19-Jul-2025
HD Live streaming from Space Station
objects crossing your sky now

COSMOS 2251 DEB

Track COSMOS 2251 DEB now!
10-day predictions


NORAD ID: 34271
Int'l Code: 1993-036LR
Perigee: 662.8 km
Apogee: 696.8 km
Inclination: 74.0 °
Period: 98.2 minutes
Semi major axis: 7050 km
RCS: 0.0086 m2 (small)
Launch date: June 16, 1993
Source: Commonwealth of Independent States (former USSR) (CIS)
Launch site: PLESETSK MISSILE AND SPACE COMPLEX (PKMTR)

Note: This is SATELLITE DEBRIS
Your satellite tracking list
STARLINK-5088
Track 1 satellite(s)




NASA's NSSDC Master Catalog

Two Line Element Set (TLE):
1 34271U 93036LR  25199.80161382  .00006633  00000-0  11996-2 0  9999
2 34271  74.0220 123.6806 0024095 220.0023 171.1708 14.66377754860783
Source of the keplerian elements: AFSPC